sat.trackr.live / text

‹ back to catalog

ORESAT0.5

NORAD 60525 · 2024-149BK

PAYLOAD ACTIVE UNKNOWN

§ Identity

Operator
Country
US
Launch date
2024-08-16
Launch site
AFWTR
Launch vehicle
Mass (kg)
RCS (m²)

External: N2YO · Heavens-Above · Gunter

§ Orbital elements

Epoch: 2026-05-24T22:13:04.357632Z

Period
93.26 min
Inclination
97.3718°
Eccentricity
0.0005057
Mean motion
15.44090034 rev/d
Perigee alt
430.6 km
Apogee alt
437.5 km
Semi-major
6,812.2 km
B*
3.9037e-4
RAAN
230.5866°
Arg perigee
19.3924°
Mean anomaly
340.7515°
Rev number
9,888

§ Raw data

ORESAT0.51 60525U 24149BK  26144.92574488  .00017783  00000+0  39037-3 0  99922 60525  97.3718 230.5866 0005057  19.3924 340.7515 15.44090034 98888

JSON: /api/v1/satellites/60525 · /tle

For live sub-satellite position, see the globe view (requires WebGL).

§ Visibility from observer

Set your observer location to see the next 7 days of passes ≥ 10°. The values pass through the URL so the page stays shareable.

No JS? Fill the form by hand. The geolocation button needs JavaScript.

§ Radio — SatNOGS DB

ModeDescriptionDownlinkUplink
GMSK 9k6 TLM 436.500 MHz
DBPSK spread spectrum DBPSK 1 Mbit/s for bulk data (inactive) 2.422 GHz

2 transmitters · refreshed weekly from db.satnogs.org